H1 CPF 2 NER 2023 12 8 9 342 01 glonass116 H2 0907001 9116 36111 2023 12 8 0 0 0 2023 12 11 23 45 0 900 1 1 0 0 0 1 H9 10 0 60286 0.00000 0 -22378364.690 -12064218.985 -2121661.864 10 0 60286 900.00000 0 -22019171.541 -11748756.992 -5288902.233 10 0 60286 1800.00000 0 -21278163.518 -11327706.632 -8353439.739 10 0 60286 2700.00000 0 -20156415.535 -10857572.105 -11255772.773 10 0 60286 3600.00000 0 -18668176.181 -10394593.263 -13939555.534 10 0 60286 4500.00000 0 -16840446.883 -9992189.396 -16352691.062 10 0 60286 5400.00000 0 -14712040.999 -9698535.479 -18448340.806 10 0 60286 6300.00000 0 -12332161.631 -9554373.360 -20185831.357 10 0 60286 7200.00000 0 -9758556.969 -9591150.340 -21531441.065 10 0 60286 8100.00000 0 -7055329.421 -9829563.720 -22459051.745 10 0 60286 9000.00000 0 -4290489.018 -10278572.731 -22950653.334 10 0 60286 9900.00000 0 -1533352.083 -10934919.675 -22996692.122 10 0 60286 10800.00000 0 1148107.625 -11783180.806 -22596256.110 10 0 60286 11700.00000 0 3689846.188 -12796345.310 -21757094.041 10 0 60286 12600.00000 0 6034168.676 -13936898.745 -20495467.619 10 0 60286 13500.00000 0 8131880.599 -15158366.145 -18835839.497 10 0 60286 14400.00000 0 9944083.127 -16407250.734 -16810402.617 10 0 60286 15300.00000 0 11443538.179 -17625287.459 -14458459.461 10 0 60286 16200.00000 0 12615547.359 -18751917.144 -11825662.683 10 0 60286 17100.00000 0 13458308.861 -19726877.569 -8963131.314 10 0 60286 18000.00000 0 13982738.233 -20492802.454 -5926459.366 10 0 60286 18900.00000 0 14211761.383 -20997718.768 -2774635.884 10 0 60286 19800.00000 0 14179110.423 -21197336.720 431102.519 10 0 60286 20700.00000 0 13927673.898 -21057035.310 3628464.063 10 0 60286 21600.00000 0 13507471.867 -20553459.004 6755315.524 10 0 60286 22500.00000 0 12973342.155 -19675657.424 9750893.201 10 0 60286 23400.00000 0 12382436.318 -18425719.205 12556986.957 10 0 60286 24300.00000 0 11791631.847 -16818872.531 15119073.890 10 0 60286 25200.00000 0 11254970.584 -14883047.331 17387379.258 10 0 60286 26100.00000 0 10821232.017 -12657916.806 19317843.854 10 0 60286 27000.00000 0 10531744.254 -10193457.773 20872979.104 10 0 60286 27900.00000 0 10418525.246 -7548089.382 22022593.514 10 0 60286 28800.00000 0 10502832.725 -4786467.322 22744376.695 10 0 60286 29700.00000 0 10794184.022 -1977024.825 23024330.067 10 0 60286 30600.00000 0 11289887.049 810637.864 22857036.315 10 0 60286 31500.00000 0 11975102.277 3508407.669 22245762.679 10 0 60286 32400.00000 0 12823433.242 6052246.998 21202396.314 10 0 60286 33300.00000 0 13798020.948 8384609.503 19747213.006 10 0 60286 34200.00000 0 14853096.435 10456583.733 17908483.655 10 0 60286 35100.00000 0 15935926.487 12229676.496 15721925.925 10 0 60286 36000.00000 0 16989070.919 13677162.709 13230011.407 10 0 60286 36900.00000 0 17952856.667 14784946.467 10481141.449 10 0 60286 37800.00000 0 18767964.580 15551898.501 7528707.417 10 0 60286 38700.00000 0 19378019.951 15989657.039 4430053.481 10 0 60286 39600.00000 0 19732077.430 16121901.537 1245362.097 10 0 60286 40500.00000 0 19786895.281 15983130.940 -1963516.023 10 0 60286 41400.00000 0 19508902.664 15616998.886 -5134264.479 10 0 60286 42300.00000 0 18875776.536 15074276.974 -8205312.567 10 0 60286 43200.00000 0 17877561.123 14410532.790 -11117031.635 10 0 60286 44100.00000 0 16517282.197 13683621.280 -13812892.916 10 0 60286 45000.00000 0 14811029.637 12951095.852 -16240564.184 10 0 60286 45900.00000 0 12787504.040 12267648.689 -18352923.969 10 0 60286 46800.00000 0 10487045.595 11682688.357 -20108973.860 10 0 60286 47700.00000 0 7960185.000 11238156.824 -21474631.482 10 0 60286 48600.00000 0 5265776.034 10966677.690 -22423389.242 10 0 60286 49500.00000 0 2468786.672 10890113.484 -22936826.538 10 0 60286 50400.00000 0 -362160.274 11018592.570 -23004965.916 10 0 60286 51300.00000 0 -3157395.729 11350046.593 -22626466.603 10 0 60286 52200.00000 0 -5848854.833 11870277.977 -21808651.766 10 0 60286 53100.00000 0 -8372660.149 12553554.892 -20567368.927 10 0 60286 54000.00000 0 -10671531.279 13363709.061 -18926685.943 10 0 60286 54900.00000 0 -12696921.634 14255690.658 -16918427.979 10 0 60286 55800.00000 0 -14410794.206 15177515.374 -14581563.910 10 0 60286 56700.00000 0 -15786963.169 16072522.103 -11961453.467 10 0 60286 57600.00000 0 -16811946.005 16881846.390 -9108969.180 10 0 60286 58500.00000 0 -17485291.228 17547005.514 -6079509.817 10 0 60286 59400.00000 0 -17819368.684 18012485.985 -2931924.281 10 0 60286 60300.00000 0 -17838631.980 18228223.933 272633.110 10 0 60286 61200.00000 0 -17578384.815 18151873.078 3471893.418 10 0 60286 62100.00000 0 -17083103.951 17750763.804 6603686.384 10 0 60286 63000.00000 0 -16404390.358 17003469.778 9607152.145 10 0 60286 63900.00000 0 -15598635.713 15900915.107 12423927.184 10 0 60286 64800.00000 0 -14724503.469 14446974.418 14999281.031 10 0 60286 65700.00000 0 -13840331.403 12658539.658 17283181.246 10 0 60286 66600.00000 0 -13001565.680 10565049.901 19231265.826 10 0 60286 67500.00000 0 -12258334.942 8207502.990 20805704.185 10 0 60286 68400.00000 0 -11653266.763 5636989.557 21975930.230 10 0 60286 69300.00000 0 -11219638.393 2912809.854 22719233.620 10 0 60286 70200.00000 0 -10979939.455 100251.157 23021198.206 10 0 60286 71100.00000 0 -10944906.811 -2731882.502 22875979.523 10 0 60286 72000.00000 0 -11113071.904 -5513886.289 22286416.338 10 0 60286 72900.00000 0 -11470839.385 -8177808.269 21263974.272 10 0 60286 73800.00000 0 -11993093.499 -10660031.423 19828522.683 10 0 60286 74700.00000 0 -12644306.651 -12903677.486 18007949.021 10 0 60286 75600.00000 0 -13380103.412 -14860733.470 15837617.951 10 0 60286 76500.00000 0 -14149214.190 -16493813.286 13359685.408 10 0 60286 77400.00000 0 -14895736.198 -17777481.880 10622280.618 10 0 60286 78300.00000 0 -15561606.430 -18699087.550 7678571.722 10 0 60286 79200.00000 0 -16089182.209 -19259068.612 4585732.960 10 0 60286 80100.00000 0 -16423820.204 -19470722.512 1403833.508 10 0 60286 81000.00000 0 -16516344.718 -19359448.070 -1805330.316 10 0 60286 81900.00000 0 -16325300.610 -18961493.650 -4979436.563 10 0 60286 82800.00000 0 -15818895.215 -18322264.817 -8056849.176 10 0 60286 83700.00000 0 -14976546.701 -17494263.573 -10977815.659 10 0 60286 84600.00000 0 -13789972.883 -16534746.633 -13685627.369 10 0 60286 85500.00000 0 -12263773.865 -15503201.962 -16127719.730 10 0 60287 0.00000 0 -10415483.350 -14458750.267 -18256690.834 10 0 60287 900.00000 0 -8275084.476 -13457580.470 -20031219.942 10 0 60287 1800.00000 0 -5884012.016 -12550528.419 -21416865.599 10 0 60287 2700.00000 0 -3293678.330 -11780898.627 -22386732.139 10 0 60287 3600.00000 0 -563585.835 -11182621.654 -22921989.202 10 0 60287 4500.00000 0 2240897.387 -10778823.660 -23012235.821 10 0 60287 5400.00000 0 5051007.297 -10580867.920 -22655702.141 10 0 60287 6300.00000 0 7797197.388 -10587908.277 -21859284.986 10 0 60287 7200.00000 0 10411788.377 -10786973.107 -20638416.521 10 0 60287 8100.00000 0 12831544.999 -11153576.224 -19016768.265 10 0 60287 9000.00000 0 15000073.667 -11652829.086 -17025795.743 10 0 60287 9900.00000 0 16869941.939 -12241007.640 -14704132.053 10 0 60287 10800.00000 0 18404432.205 -12867507.970 -12096841.533 10 0 60287 11700.00000 0 19578856.984 -13477108.435 -9254547.452 10 0 60287 12600.00000 0 20381381.379 -14012442.830 -6232450.331 10 0 60287 13500.00000 0 20813318.798 -14416579.993 -3089255.722 10 0 60287 14400.00000 0 20888888.077 -14635600.526 113967.671 10 0 60287 15300.00000 0 20634442.805 -14621061.174 3314977.090 10 0 60287 16200.00000 0 20087205.886 -14332241.972 6451568.483 10 0 60287 17100.00000 0 19293563.335 -13738080.353 9462788.864 10 0 60287 18000.00000 0 18306989.855 -12818709.556 12290124.096 10 0 60287 18900.00000 0 17185694.303 -11566535.432 14878638.538 10 0 60287 19800.00000 0 15990084.831 -9986805.199 17178044.066 10 0 60287 20700.00000 0 14780160.971 -8097643.201 19143677.484 10 0 60287 21600.00000 0 13612942.739 -5929551.151 20737367.390 10 0 60287 22500.00000 0 12540045.010 -3524392.774 21928173.873 10 0 60287 23400.00000 0 11605499.093 -933904.398 22692987.039 10 0 60287 24300.00000 0 10843912.709 1782207.285 23016973.164 10 0 60287 25200.00000 0 10279045.260 4558501.903 22893860.263 10 0 60287 26100.00000 0 9922857.647 7326284.290 22326057.888 10 0 60287 27000.00000 0 9775076.008 10016223.306 21324609.052 10 0 60287 27900.00000 0 9823287.098 12561002.575 19908975.289 10 0 60287 28800.00000 0 10043560.820 14897893.686 18106658.935 10 0 60287 29700.00000 0 10401573.296 16971145.600 15952669.738 10 0 60287 30600.00000 0 10854182.823 18734091.550 13488845.848 10 0 60287 31500.00000 0 11351392.076 20150886.309 10763042.061 10 0 60287 32400.00000 0 11838613.488 21197802.071 7828200.823 10 0 60287 33300.00000 0 12259141.984 21864029.493 4741323.856 10 0 60287 34200.00000 0 12556730.287 22151951.121 1562364.399 10 0 60287 35100.00000 0 12678157.622 22076876.505 -1646938.304 10 0 60287 36000.00000 0 12575682.800 21666250.913 -4824259.385 10 0 60287 36900.00000 0 12209277.478 20958371.662 -7907899.936 10 0 60287 37800.00000 0 11548544.626 20000666.767 -10837985.930 10 0 60287 38700.00000 0 10574240.524 18847608.952 -13557630.940 10 0 60287 39600.00000 0 9279335.318 17558353.302 -16014039.874 10 0 60287 40500.00000 0 7669566.599 16194198.254 -18159532.318 10 0 60287 41400.00000 0 5763461.768 14815976.797 -19952465.798 10 0 60287 42300.00000 0 3591827.183 13481487.477 -21358041.343 10 0 60287 43200.00000 0 1196724.348 12243072.817 -22348976.166 10 0 60287 44100.00000 0 -1370025.286 11145446.337 -22906030.907 10 0 60287 45000.00000 0 -4048745.764 10223858.842 -23018381.610 10 0 60287 45900.00000 0 -6774144.164 9502680.235 -22683829.582 10 0 60287 46800.00000 0 -9477788.361 8994455.757 -21908845.211 10 0 60287 47700.00000 0 -12090723.071 8699475.697 -20708444.820 10 0 60287 48600.00000 0 -14546116.427 8605876.189 -19105902.703 10 0 60287 49500.00000 0 -16781827.922 8690266.508 -17132303.463 10 0 60287 50400.00000 0 -18742791.513 8918856.276 -14825942.789 10 0 60287 51300.00000 0 -20383115.197 9249034.938 -12231587.714 10 0 60287 52200.00000 0 -21667809.901 9631336.811 -9399610.136 10 0 60287 53100.00000 0 -22574075.780 10011708.592 -6385010.076 10 0 60287 54000.00000 0 -23092092.391 10333983.302 -3246347.397 10 0 60287 54900.00000 0 -23225279.941 10542455.668 -44602.781 10 0 60287 55800.00000 0 -22990020.958 10584449.480 3158009.646 10 0 60287 56700.00000 0 -22414854.526 10412767.608 6299254.550 10 0 60287 57600.00000 0 -21539177.437 9987920.205 9318088.383 10 0 60287 58500.00000 0 -20411507.458 9280035.959 12155848.974 10 0 60287 59400.00000 0 -19087382.383 8270374.648 14757398.096 10 0 60287 60300.00000 0 -17626983.785 6952376.126 17072194.455 10 0 60287 61200.00000 0 -16092585.851 5332200.487 19055276.035 10 0 60287 62100.00000 0 -14545936.851 3428735.611 20668132.765 10 0 60287 63000.00000 0 -13045683.286 1273070.701 21879452.775 10 0 60287 63900.00000 0 -11644944.737 -1092543.182 22665728.104 10 0 60287 64800.00000 0 -10389140.792 -3616203.153 23011708.535 10 0 60287 65700.00000 0 -9314160.622 -6238273.115 22910695.201 10 0 60287 66600.00000 0 -8444951.216 -8893631.905 22364668.622 10 0 60287 67500.00000 0 -7794582.688 -11514158.275 21384248.915 10 0 60287 68400.00000 0 -7363828.975 -14031350.175 19988489.055 10 0 60287 69300.00000 0 -7141280.693 -16378970.085 18204505.078 10 0 60287 70200.00000 0 -7103984.619 -18495607.001 16066950.221 10 0 60287 71100.00000 0 -7218582.191 -20327049.026 13617342.891 10 0 60287 72000.00000 0 -7442898.491 -21828368.179 10903261.175 10 0 60287 72900.00000 0 -7727914.135 -22965630.942 7977419.312 10 0 60287 73800.00000 0 -8020036.412 -23717163.559 4896643.818 10 0 60287 74700.00000 0 -8263573.224 -24074319.605 1720769.190 10 0 60287 75600.00000 0 -8403304.792 -24041718.187 -1488525.273 10 0 60287 76500.00000 0 -8387043.860 -23636943.327 -4668914.687 10 0 60287 77400.00000 0 -8168075.565 -22889717.693 -7758640.213 10 0 60287 78300.00000 0 -7707373.195 -21840585.928 -10697709.203 10 0 60287 79200.00000 0 -6975495.557 -20539163.451 -13429060.291 10 0 60287 80100.00000 0 -5954085.091 -19042024.693 -15899670.608 10 0 60287 81000.00000 0 -4636902.749 -17410319.826 -18061583.604 10 0 60287 81900.00000 0 -3030355.168 -15707220.104 -19872837.719 10 0 60287 82800.00000 0 -1153490.934 -13995298.982 -21298278.162 10 0 60287 83700.00000 0 962534.998 -12333958.503 -22310236.498 10 0 60287 84600.00000 0 3275507.571 -10777008.306 -22889065.352 10 0 60287 85500.00000 0 5733666.110 -9370498.010 -23023518.281 10 0 60288 0.00000 0 8277624.905 -8150893.069 -22710967.831 10 0 60288 900.00000 0 10842622.548 -7143669.030 -21957457.487 10 0 60288 1800.00000 0 13361004.113 -6362383.846 -20777586.930 10 0 60288 2700.00000 0 15764838.442 -5808264.192 -19194232.049 10 0 60288 3600.00000 0 17988559.151 -5470324.136 -17238104.989 10 0 60288 4500.00000 0 19971521.340 -5326009.897 -14947162.134 10 0 60288 5400.00000 0 21660367.753 -5342343.244 -12365870.949 10 0 60288 6300.00000 0 23011105.953 -5477514.905 -9544349.333 10 0 60288 7200.00000 0 23990809.864 -5682860.418 -6537393.839 10 0 60288 8100.00000 0 24578874.596 -5905134.544 -3403415.404 10 0 60288 9000.00000 0 24767772.022 -6088987.610 -203303.271 10 0 60288 9900.00000 0 24563275.471 -6179538.419 3000760.561 10 0 60288 10800.00000 0 23984144.247 -6124934.162 6146512.900 10 0 60288 11700.00000 0 23061281.472 -5878788.158 9172822.890 10 0 60288 12600.00000 0 21836400.939 -5402391.394 12020883.298 10 0 60288 13500.00000 0 20360259.418 -4666603.408 14635355.932 10 0 60288 14400.00000 0 18690529.063 -3653341.631 16965448.556 10 0 60288 15300.00000 0 16889399.674 -2356605.348 18965902.156 10 0 60288 16200.00000 0 15021011.661 -782990.121 20597869.404 10 0 60288 17100.00000 0 13148827.460 1048330.019 21829667.481 10 0 60288 18000.00000 0 11333051.435 3106152.903 22637390.965 10 0 60288 18900.00000 0 9628205.944 5348309.070 23005373.359 10 0 60288 19800.00000 0 8080964.435 7723189.837 22926488.711 10 0 60288 20700.00000 0 6728331.467 10171679.764 22402287.894 10 0 60288 21600.00000 0 5596244.884 12629413.878 21442967.113 10 0 60288 22500.00000 0 4698657.595 15029266.490 20067169.362 10 0 60288 23400.00000 0 4037136.378 17303968.644 18301622.596 10 0 60288 24300.00000 0 3600993.442 19388745.841 16180621.446 10 0 60288 25200.00000 0 3367944.210 21223866.634 13745362.194 10 0 60288 26100.00000 0 3305262.739 22756996.181 11043143.627 10 0 60288 27000.00000 0 3371385.280 23945256.848 8126448.997 10 0 60288 27900.00000 0 3517893.601 24756909.971 5051926.714 10 0 60288 28800.00000 0 3691793.657 25172588.648 1879289.561 10 0 60288 29700.00000 0 3837992.673 25186030.137 -1329846.074 10 0 60288 30600.00000 0 3901869.274 24804277.415 -4513158.194 10 0 60288 31500.00000 0 3831827.352 24047341.741 -7608830.774 10 0 60288 32400.00000 0 3581725.007 22947340.677 -10556755.059 10 0 60288 33300.00000 0 3113075.241 21547148.094 -13299696.998 10 0 60288 34200.00000 0 2396924.752 19898613.100 -15784407.886 10 0 60288 35100.00000 0 1415330.796 18060422.786 -17962656.680 10 0 60288 36000.00000 0 162373.058 16095698.488 -19792164.085 10 0 60288 36900.00000 0 -1355342.942 14069426.139 -21237420.570 10 0 60288 37800.00000 0 -3118713.076 12045828.008 -22270372.876 10 0 60288 38700.00000 0 -5096692.469 10085785.240 -22870966.177 10 0 60288 39600.00000 0 -7247361.842 8244418.296 -23027531.818 10 0 60288 40500.00000 0 -9519459.030 6568925.574 -22737013.443 10 0 60288 41400.00000 0 -11854313.057 5096769.582 -22005027.319 10 0 60288 42300.00000 0 -14188101.288 3854285.548 -20845755.641 10 0 60288 43200.00000 0 -16454336.676 2855769.663 -19281674.647 10 0 60288 44100.00000 0 -18586482.376 2103084.220 -17343122.371 10 0 60288 45000.00000 0 -20520585.399 1585795.357 -15067713.908 10 0 60288 45900.00000 0 -22197819.903 1281836.872 -12499614.891 10 0 60288 46800.00000 0 -23566834.174 1158671.469 -9688686.779 10 0 60288 47700.00000 0 -24585803.186 1174899.935 -6689520.101 10 0 60288 48600.00000 0 -25224100.759 1282249.692 -3560374.259 10 0 60288 49500.00000 0 -25463521.029 1427858.135 -362044.418 10 0 60288 50400.00000 0 -25298997.810 1556753.484 2843322.191 10 0 60288 51300.00000 0 -24738791.467 1614427.456 5993437.165 10 0 60288 52200.00000 0 -23804135.401 1549390.044 9027084.962 10 0 60288 53100.00000 0 -22528357.008 1315597.419 11885315.874 10 0 60288 54000.00000 0 -20955510.171 874649.349 14512594.241 10 0 60288 54900.00000 0 -19138576.888 197662.314 16857879.227 10 0 60288 55800.00000 0 -17137313.687 -733261.669 18875616.931 10 0 60288 56700.00000 0 -15015833.278 -1924033.391 20526624.576 10 0 60288 57600.00000 0 -12840022.698 -3368085.073 21778849.827 10 0 60288 58500.00000 0 -10674905.907 -5046410.859 22607990.821 10 0 60288 59400.00000 0 -8582060.685 -6928138.433 22997965.345 10 0 60288 60300.00000 0 -6617197.208 -8971608.821 22941220.492 10 0 60288 61200.00000 0 -4827998.640 -11125920.147 22438877.183 10 0 60288 62100.00000 0 -3252312.962 -13332871.778 21500706.990 10 0 60288 63000.00000 0 -1916770.459 -15529228.578 20144941.831 10 0 60288 63900.00000 0 -835883.475 -17649211.535 18397920.131 10 0 60288 64800.00000 0 -11664.891 -19627111.478 16293576.130 10 0 60288 65700.00000 0 566219.915 -21399917.311 13872781.911 10 0 60288 66600.00000 0 919775.159 -22909849.329 11182554.630 10 0 60288 67500.00000 0 1081500.388 -24106691.968 8275144.028 10 0 60288 68400.00000 0 1092770.288 -24949828.494 5207017.739 10 0 60288 69300.00000 0 1001837.810 -25409892.467 2037764.092 10 0 60288 70200.00000 0 861545.738 -25469966.732 -1171066.216 10 0 60288 71100.00000 0 726844.158 -25126279.661 -4357156.835 10 0 60288 72000.00000 0 652219.522 -24388369.408 -7458637.277 10 0 60288 72900.00000 0 689144.687 -23278709.327 -10415285.354 10 0 60288 73800.00000 0 883658.389 -21831810.334 -13169696.897 10 0 60288 74700.00000 0 1274177.097 -20092837.931 -15668399.813 10 0 60288 75600.00000 0 1889632.236 -18115801.888 -17862890.811 10 0 60288 76500.00000 0 2748012.067 -15961394.352 -19710574.847 10 0 60288 77400.00000 0 3855370.329 -13694566.682 -21175589.299 10 0 60288 78300.00000 0 5205344.188 -11381945.955 -22229497.332 10 0 60288 79200.00000 0 6779202.677 -9089198.540 -22851837.491 10 0 60288 80100.00000 0 8546424.621 -6878450.082 -23030519.278 10 0 60288 81000.00000 0 10465782.991 -4805868.681 -22762057.421 10 0 60288 81900.00000 0 12486891.550 -2919511.093 -22051640.450 10 0 60288 82800.00000 0 14552150.296 -1257520.787 -20913032.250 10 0 60288 83700.00000 0 16599009.573 153247.996 -19368308.222 10 0 60288 84600.00000 0 18562459.263 1298123.755 -17447430.791 10 0 60288 85500.00000 0 20377639.814 2174992.399 -15187671.908 10 0 60289 0.00000 0 21982466.377 2794138.290 -12632893.444 10 0 60289 900.00000 0 23320157.387 3177559.499 -9832697.434 10 0 60289 1800.00000 0 24341559.626 3357786.116 -6841465.784 10 0 60289 2700.00000 0 25007175.037 3376253.279 -3717303.277 10 0 60289 3600.00000 0 25288801.740 3281297.471 -520907.753 10 0 60289 4500.00000 0 25170720.859 3125861.887 2685611.628 10 0 60289 5400.00000 0 24650378.728 2965008.645 5839944.506 10 0 60289 6300.00000 0 23738535.475 2853343.934 8880793.755 10 0 60289 7200.00000 0 22458873.419 2842465.892 11749070.040 10 0 60289 8100.00000 0 20847081.595 2978544.057 14389042.772 10 0 60289 9000.00000 0 18949454.708 3300133.559 16749424.716 10 0 60289 9900.00000 0 16821065.242 3836317.221 18784368.926 10 0 60289 10800.00000 0 14523585.297 4605254.754 20454358.662 10 0 60289 11700.00000 0 12122849.148 5613200.938 21726973.204 10 0 60289 12600.00000 0 9686258.257 6854034.898 22577515.019 10 0 60289 13500.00000 0 7280136.687 8309321.003 22989486.577 10 0 60289 14400.00000 0 4967146.692 9948899.663 22954908.015 10 0 60289 15300.00000 0 2803871.498 11731984.048 22474469.876 10 0 60289 16200.00000 0 838665.124 13608717.663 21557518.239 10 0 60289 17100.00000 0 -890142.227 15522128.416 20221872.639 10 0 60289 18000.00000 0 -2355609.502 17410398.188 18493480.241 10 0 60289 18900.00000 0 -3543065.127 19209353.658 16405912.793 10 0 60289 19800.00000 0 -4450466.806 20855074.726 13999715.758 10 0 60289 20700.00000 0 -5088227.006 22286511.734 11321621.989 10 0 60289 21600.00000 0 -5478512.674 23448002.084 8423644.860 10 0 60289 22500.00000 0 -5654049.805 24291580.880 5362068.257 10 0 60289 23400.00000 0 -5656484.237 24778988.556 2196353.011 10 0 60289 24300.00000 0 -5534368.814 24883291.120 -1012018.911 10 0 60289 25200.00000 0 -5340862.759 24590044.734 -4200739.786 10 0 60289 26100.00000 0 -5131241.292 23897955.490 -7307887.518 10 0 60289 27000.00000 0 -4960321.479 22819006.456 -10273129.139 10 0 60289 27900.00000 0 -4879913.783 21378046.431 -13038892.774 10 0 60289 28800.00000 0 -4936407.604 19611857.484 -15551485.050 10 0 60289 29700.00000 0 -5168593.322 17567740.144 -17762132.236 10 0 60289 30600.00000 0 -5605813.261 15301675.214 -19627925.026 10 0 60289 31500.00000 0 -6266520.051 12876138.784 -21112648.888 10 0 60289 32400.00000 0 -7157303.649 10357661.250 -22187484.307 10 0 60289 33300.00000 0 -8272428.618 7814231.604 -22831563.779 10 0 60289 34200.00000 0 -9593901.839 5312654.502 -23032375.233 10 0 60289 35100.00000 0 -11092068.735 2915969.352 -22786004.387 10 0 60289 36000.00000 0 -12726713.979 681037.906 -22097211.554 10 0 60289 36900.00000 0 -14448621.633 -1343600.180 -20979341.393 10 0 60289 37800.00000 0 -16201530.442 -3119515.550 -19454067.135 10 0 60289 38700.00000 0 -17924403.381 -4619747.668 -17550973.827 10 0 60289 39600.00000 0 -19553917.236 -5829677.930 -15306988.153 10 0 60289 40500.00000 0 -21027068.540 -6747381.895 -12765665.308 10 0 60289 41400.00000 0 -22283786.978 -7383446.841 -9976346.185 10 0 60289 42300.00000 0 -23269446.698 -7760263.204 -6993200.841 10 0 60289 43200.00000 0 -23937169.949 -7910820.609 -3874176.577 10 0 60289 44100.00000 0 -24249825.882 -7877060.061 -679871.017 10 0 60289 45000.00000 0 -24181639.955 -7707852.688 2527647.659 10 0 60289 45900.00000 0 -23719345.684 -7456691.299 5686050.012 10 0 60289 46800.00000 0 -22862829.688 -7179193.181 8733960.156 10 0 60289 47700.00000 0 -21625242.353 -6930520.645 11612151.862 10 0 60289 48600.00000 0 -20032569.001 -6762829.185 14264702.200 10 0 60289 49500.00000 0 -18122679.174 -6722851.963 16640079.895 10 0 60289 50400.00000 0 -15943893.611 -6849723.339 18692147.020 10 0 60289 51300.00000 0 -13553128.682 -7173133.985 20381054.565 10 0 60289 52200.00000 0 -11013695.604 -7711895.934 21674014.689 10 0 60289 53100.00000 0 -8392846.056 -8472978.549 22545934.990 10 0 60289 54000.00000 0 -5759166.149 -9451056.478 22979902.951 10 0 60289 54900.00000 0 -3179926.778 -10628589.131 22967511.627 10 0 60289 55800.00000 0 -718499.982 -11976428.922 22509020.627 10 0 60289 56700.00000 0 1568052.011 -13454933.350 21613349.598 10 0 60289 57600.00000 0 3631115.729 -15015534.962 20297904.403 10 0 60289 58500.00000 0 5432305.400 -16602704.001 18588239.344 10 0 60289 59400.00000 0 6944808.979 -18156222.073 16517561.766 10 0 60289 60300.00000 0 8154246.333 -19613672.038 14126088.329 10 0 60289 61200.00000 0 9059004.978 -20913040.031 11460265.132 10 0 60289 62100.00000 0 9670040.567 -21995320.691 8571866.498 10 0 60289 63000.00000 0 10010151.758 -22807016.214 5516989.697 10 0 60289 63900.00000 0 10112761.055 -23302424.152 2354965.080 10 0 60289 64800.00000 0 10020254.082 -23445617.551 -852797.144 10 0 60289 65700.00000 0 9781948.279 -23212033.794 -4044000.885 10 0 60289 66600.00000 0 9451777.649 -22589604.952 -7156675.351 10 0 60289 67500.00000 0 9085792.147 -21579381.670 -10130379.571 10 0 60289 68400.00000 0 8739578.007 -20195623.901 -12907376.551 10 0 60289 69300.00000 0 8465708.584 -18465354.259 -15433754.012 10 0 60289 70200.00000 0 8311333.804 -16427392.243 -17660469.881 10 0 60289 71100.00000 0 8316010.339 -14130909.315 -19544302.375 10 0 60289 72000.00000 0 8509864.335 -11633564.729 -21048686.471 10 0 60289 72900.00000 0 8912164.405 -8999299.398 -22144420.955 10 0 60289 73800.00000 0 9530365.292 -6295879.074 -22810232.822 10 0 60289 74700.00000 0 10359662.835 -3592288.426 -23033188.511 10 0 60289 75600.00000 0 11383079.501 -956083.591 -22808944.371 10 0 60289 76500.00000 0 12572077.530 1549187.695 -22141831.733 10 0 60289 77400.00000 0 13887674.747 3866392.048 -21044774.890 10 0 60289 78300.00000 0 15282017.060 5946943.453 -19539043.425 10 0 60289 79200.00000 0 16700342.519 7752575.592 -17653843.225 10 0 60289 80100.00000 0 18083255.255 9256680.585 -15425753.637 10 0 60289 81000.00000 0 19369214.465 10445159.269 -12898021.069 10 0 60289 81900.00000 0 20497134.280 11316748.395 -10119722.190 10 0 60289 82800.00000 0 21408985.378 11882811.933 -7144812.578 10 0 60289 83700.00000 0 22052288.801 12166606.150 -4031079.012 10 0 60289 84600.00000 0 22382396.681 12202050.276 -839015.754 10 0 60289 85500.00000 0 22364463.255 12032055.406 2369353.151 99